FW2297 Weather Reports


Display with metric or nautical units.
time (UTC)temp
F
wind
direction
speed
MPH
gust
MPH
rain 1hr
in
rain 24hr
in
rain mn
in
humidity
%
barometer
mb
20260503203548 47 0 3.0 14.0 0.00 0.19 0.01 46 1005.9
20260503203100 47 0 2.0 14.0 0.00 0.19 0.01 46 1005.8
20260503202552 47 0 2.0 16.0 0.00 0.19 0.01 48 1005.9
20260503202050 47 0 4.0 16.0 0.00 0.19 0.01 47 1005.8
20260503201551 47 301 1.0 15.0 0.00 0.19 0.01 47 1005.6
20260503201048 48 314 1.0 15.0 0.00 0.19 0.01 46 1005.7
20260503200548 48 275 4.0 13.0 0.00 0.19 0.01 45 1005.5
20260503200054 48 1 1.0 19.0 0.01 0.19 0.01 44 1005.5
20260503195549 48 0 2.0 19.0 0.01 0.19 0.01 44 1005.4
20260503195049 49 271 7.0 18.0 0.01 0.19 0.01 43 1005.5
20260503194608 49 0 9.0 18.0 0.01 0.19 0.01 42 1005.4
20260503194049 50 336 4.0 17.0 0.01 0.19 0.01 42 1005.4
20260503193551 50 0 2.0 14.0 0.01 0.19 0.01 44 1005.4
20260503193055 51 340 4.0 15.0 0.01 0.19 0.01 41 1005.5
20260503192550 51 285 3.0 15.0 0.01 0.19 0.01 42 1005.3
20260503192048 51 276 5.0 16.0 0.01 0.19 0.01 43 1005.5
20260503191632 50 297 3.0 20.0 0.01 0.19 0.01 43 1005.4
20260503191050 50 300 5.0 20.0 0.01 0.19 0.01 44 1005.5
20260503190551 50 255 6.0 20.0 0.01 0.19 0.01 43 1005.6
20260503190059 50 252 7.0 20.0 0.00 0.18 0.00 44 1005.6
20260503185551 50 0 8.0 16.0 0.00 0.19 0.00 44 1005.6
20260503185048 50 302 5.0 16.0 0.00 0.19 0.00 45 1005.5
20260503184559 49 266 5.0 20.0 0.00 0.19 0.00 48 1005.6
20260503184051 49 0 7.0 20.0 0.00 0.19 0.00 44 1005.5
20260503183547 50 315 8.0 20.0 0.00 0.19 0.00 43 1005.6
20260503183105 51 0 4.0 15.0 0.00 0.19 0.00 45 1005.5
20260503182550 51 338 3.0 20.0 0.00 0.19 0.00 44 1005.4
20260503182050 51 0 5.0 20.0 0.00 0.19 0.00 43 1005.5
20260503181600 51 278 2.0 17.0 0.00 0.19 0.00 44 1005.4
20260503181051 50 0 5.0 17.0 0.00 0.19 0.00 44 1005.6
20260503180551 49 0 6.0 19.0 0.00 0.19 0.00 45 1005.5
20260503180108 49 0 5.0 19.0 0.00 0.19 0.00 44 1005.5
20260503175549 50 293 7.0 19.0 0.00 0.19 0.00 45 1005.4
20260503175050 52 308 4.0 19.0 0.00 0.19 0.00 45 1005.6
20260503174555 52 293 4.0 19.0 0.00 0.19 0.00 47 1005.5
20260503174048 51 0 1.0 20.0 0.00 0.19 0.00 47 1005.7
20260503173548 49 0 2.0 20.0 0.00 0.19 0.00 51 1005.8
20260503173147 48 311 3.0 17.0 0.00 0.19 0.00 51 1005.8
20260503172549 48 353 6.0 17.0 0.00 0.19 0.00 51 1005.9
20260503172050 49 0 3.0 13.0 0.00 0.19 0.00 51 1005.8
20260503171556 49 277 1.0 13.0 0.00 0.19 0.00 49 1005.7
20260503171049 50 282 2.0 13.0 0.00 0.19 0.00 48 1005.7
20260503170549 50 279 2.0 16.0 0.00 0.19 0.00 51 1005.9
20260503150552 45 46 2.0 17.0 0.00 0.19 0.00 60 1006.4
20260503131052 42 0 3.0 14.0 0.00 0.19 0.00 81 1007.1
20260503130550 42 305 0.0 10.0 0.00 0.19 0.00 83 1007.0
20260503130104 41 0 0.0 10.0 0.00 0.19 0.00 84 1007.0
20260503120106 39 0 0.0 5.0 0.00 0.20 0.00 91 1007.1
20260503110554 38 0 0.0 6.0 0.00 0.22 0.00 93 1007.3
20260503100109 38 0 0.0 0.0 0.00 0.22 0.00 94 1007.2
20260503081558 38 0 0.0 0.0 0.00 0.26 0.00 94 1007.9
20260503081051 38 0 0.0 0.0 0.00 0.26 0.00 94 1008.0
20260503080555 38 0 0.0 0.0 0.00 0.26 0.00 94 1007.9
20260503072551 38 0 0.0 0.0 0.00 0.28 0.00 94 1008.3
20260503072052 38 0 0.0 1.0 0.00 0.28 0.00 94 1008.2
20260503071553 38 0 0.0 1.0 0.00 0.28 0.00 94 1008.3
20260503071050 38 0 0.0 0.0 0.00 0.28 0.00 94 1008.4
20260503070552 38 0 0.0 0.0 0.00 0.28 0.00 94 1008.4
20260503055051 39 0 0.0 0.0 0.00 0.31 0.00 94 1008.6
20260503054556 39 0 0.0 0.0 0.00 0.31 0.00 94 1008.7
20260503054051 39 0 0.0 0.0 0.00 0.31 0.00 94 1008.8
20260503053551 40 0 0.0 0.0 0.00 0.31 0.00 94 1008.8
20260503053055 40 0 0.0 0.0 0.00 0.31 0.00 94 1008.9
20260503052550 40 0 0.0 0.0 0.00 0.31 0.00 94 1008.8
20260503052053 40 0 0.0 0.0 0.00 0.31 0.00 94 1009.1
20260503051553 40 0 0.0 0.0 0.00 0.31 0.00 94 1008.9
20260503051055 40 0 0.0 0.0 0.00 0.31 0.00 94 1009.1
20260503050552 40 0 0.0 0.0 0.00 0.31 0.00 94 1009.2
20260503050055 40 0 0.0 0.0 0.00 0.31 0.00 94 1009.2
20260503045551 40 0 0.0 0.0 0.00 0.31 0.00 94 1009.2
20260503045052 40 0 0.0 0.0 0.00 0.31 0.00 94 1009.3
20260503044555 40 0 0.0 0.0 0.00 0.31 0.00 94 1009.5
20260503044052 40 0 0.0 0.0 0.00 0.31 0.00 94 1009.5
20260503043551 40 0 0.0 0.0 0.00 0.31 0.00 94 1009.5
20260503043100 40 0 0.0 0.0 0.00 0.31 0.00 94 1009.7
20260503042551 40 0 0.0 0.0 0.00 0.31 0.00 94 1009.7
20260503042052 40 0 0.0 0.0 0.00 0.31 0.00 94 1009.8
20260503041553 40 0 0.0 0.0 0.00 0.31 0.00 94 1009.9
20260503041051 40 0 0.0 0.0 0.00 0.31 0.00 94 1009.9
20260503040550 40 0 0.0 0.0 0.00 0.31 0.00 94 1010.0
20260503040054 40 0 0.0 0.0 0.00 0.31 0.00 94 1010.1
20260503035548 41 0 0.0 0.0 0.00 0.31 0.31 94 1010.1
20260503035051 41 0 0.0 0.0 0.00 0.31 0.31 94 1009.9
20260503034552 41 0 0.0 0.0 0.01 0.31 0.31 94 1010.2
20260503034052 41 0 0.0 0.0 0.01 0.31 0.31 94 1010.1
20260503033549 41 0 0.0 0.0 0.02 0.31 0.31 94 1010.1
20260503033052 41 0 0.0 0.0 0.02 0.31 0.31 94 1010.2
20260503032552 41 0 0.0 0.0 0.03 0.31 0.31 94 1010.2
20260503032051 41 0 0.0 0.0 0.03 0.31 0.31 94 1010.3
20260503031607 41 0 0.0 0.0 0.04 0.31 0.31 94 1010.3
20260503031052 41 0 0.0 0.0 0.04 0.31 0.31 94 1010.2
20260503030551 41 0 0.0 0.0 0.04 0.31 0.31 94 1010.3
20260503030052 41 0 0.0 0.0 0.04 0.31 0.31 94 1010.4
20260503025551 41 0 0.0 0.0 0.04 0.31 0.31 94 1010.3
20260503025052 41 0 0.0 0.0 0.04 0.31 0.31 94 1010.6
20260503024552 41 0 0.0 0.0 0.03 0.30 0.30 94 1010.6
20260503024050 41 0 0.0 0.0 0.04 0.30 0.30 93 1010.7
20260503023552 41 0 0.0 0.0 0.03 0.29 0.29 93 1010.7
20260503023056 41 0 0.0 0.0 0.04 0.29 0.29 93 1010.6
20260503022552 41 0 0.0 0.0 0.03 0.28 0.28 93 1010.8
20260503022048 41 0 0.0 0.0 0.03 0.28 0.28 93 1010.7
20260503021554 41 0 0.0 0.0 0.03 0.27 0.27 93 1010.8
20260503021052 41 0 0.0 0.0 0.05 0.27 0.27 93 1010.8
20260503020552 41 0 0.0 0.0 0.05 0.27 0.27 93 1010.9
20260503020100 41 0 0.0 0.0 0.05 0.27 0.27 93 1011.0
20260503015551 41 0 0.0 0.0 0.05 0.27 0.27 93 1010.8
20260503015050 41 0 0.0 0.0 0.05 0.27 0.27 93 1010.9
20260503014558 42 0 0.0 0.0 0.05 0.27 0.27 93 1010.7
20260503014051 42 0 0.0 0.0 0.04 0.26 0.26 93 1010.9
20260503013552 42 0 0.0 0.0 0.03 0.25 0.25 93 1010.8
20260503013056 42 0 0.0 4.0 0.03 0.25 0.25 93 1010.7
20260503012549 42 0 0.0 7.0 0.03 0.25 0.25 93 1010.7
20260503012049 42 0 0.0 9.0 0.03 0.25 0.25 93 1010.8
20260503011605 43 0 0.0 9.0 0.02 0.24 0.24 93 1010.8
20260503011052 44 0 0.0 1.0 0.00 0.22 0.22 94 1010.7
20260503010556 44 0 0.0 1.0 0.00 0.22 0.22 94 1010.4
20260503010100 44 0 0.0 0.0 0.00 0.22 0.22 94 1010.2
20260503005551 44 0 0.0 0.0 0.00 0.22 0.22 94 1010.1
20260503005051 44 0 0.0 0.0 0.00 0.22 0.22 93 1010.1
20260503004556 44 0 0.0 0.0 0.00 0.22 0.22 93 1010.1
20260503004050 44 0 0.0 0.0 0.00 0.22 0.22 93 1010.0
20260503003550 44 0 0.0 0.0 0.00 0.22 0.22 93 1010.0
20260503003104 44 0 0.0 0.0 0.00 0.22 0.22 93 1010.1
20260503002550 44 0 0.0 0.0 0.00 0.22 0.22 93 1010.0
20260503002050 44 0 0.0 0.0 0.00 0.22 0.22 93 1010.1
20260503001619 44 0 0.0 0.0 0.00 0.22 0.22 93 1010.2
20260503001054 44 0 0.0 0.0 0.00 0.22 0.22 93 1009.7
20260503000548 45 0 0.0 0.0 0.01 0.22 0.22 93 1009.7
20260503000121 45 0 0.0 0.0 0.01 0.22 0.22 93 1009.8
20260502235548 45 0 0.0 0.0 0.01 0.22 0.22 92 1009.7
20260502235049 45 0 0.0 0.0 0.01 0.22 0.22 92 1009.6
20260502234605 45 0 0.0 0.0 0.01 0.22 0.22 92 1009.7
20260502234051 45 0 0.0 0.0 0.01 0.22 0.22 92 1009.8
20260502233551 45 0 0.0 0.0 0.01 0.22 0.22 92 1009.8
20260502233053 45 0 0.0 0.0 0.01 0.22 0.22 92 1009.6
20260502232550 45 0 0.0 0.0 0.01 0.22 0.22 92 1009.8
20260502232050 46 0 0.0 0.0 0.01 0.22 0.22 92 1009.8
20260502231615 46 0 0.0 0.0 0.01 0.22 0.22 92 1009.8
20260502231050 46 0 0.0 0.0 0.01 0.22 0.22 92 1009.8
20260502230552 46 0 0.0 0.0 0.00 0.21 0.21 92 1009.8
20260502230054 46 0 0.0 0.0 0.00 0.21 0.21 91 1009.9
20260502225550 46 0 0.0 0.0 0.00 0.21 0.21 91 1009.8
20260502225048 46 0 0.0 0.0 0.00 0.21 0.21 91 1009.6
20260502224601 46 0 0.0 0.0 0.00 0.21 0.21 91 1009.7
20260502224048 46 0 0.0 0.0 0.00 0.21 0.21 90 1009.6
20260502223552 46 0 0.0 0.0 0.00 0.21 0.21 90 1009.8
20260502223049 46 0 0.0 0.0 0.00 0.21 0.21 90 1009.7
20260502222548 46 0 0.0 0.0 0.00 0.21 0.21 90 1009.6
20260502222050 46 0 0.0 0.0 0.00 0.21 0.21 90 1009.6
20260502221556 47 0 0.0 0.0 0.00 0.21 0.21 91 1009.7
20260502221051 46 0 0.0 0.0 0.00 0.21 0.21 91 1009.5
20260502220553 46 0 0.0 0.0 0.00 0.21 0.21 91 1009.6
20260502220053 46 0 0.0 0.0 0.00 0.21 0.21 91 1009.6
20260502215552 46 0 0.0 0.0 0.01 0.21 0.21 91 1009.6
20260502215051 46 0 0.0 0.0 0.01 0.21 0.21 91 1009.7
20260502214552 46 0 0.0 0.0 0.01 0.21 0.21 91 1009.6
20260502214051 46 0 0.0 0.0 0.02 0.21 0.21 92 1009.6
20260502213551 46 0 0.0 0.0 0.02 0.21 0.21 92 1009.7
20260502213052 46 0 0.0 0.0 0.02 0.21 0.21 91 1009.5
20260502212551 46 0 0.0 0.0 0.03 0.21 0.21 91 1009.6
20260502212052 46 0 0.0 0.0 0.05 0.21 0.21 90 1009.6
20260502211551 46 0 0.0 0.0 0.06 0.21 0.21 90 1009.7
20260502211053 46 0 0.0 0.0 0.07 0.21 0.21 90 1009.7
20260502210550 46 0 0.0 0.0 0.08 0.21 0.21 90 1009.7
20260502210054 46 0 0.0 0.0 0.08 0.21 0.21 90 1009.8
20260502205552 46 0 0.0 0.0 0.07 0.20 0.20 89 1009.7
20260502205051 46 0 0.0 0.0 0.07 0.20 0.20 89 1009.7
20260502204554 46 0 0.0 4.0 0.07 0.20 0.20 88 1009.8
20260502204054 46 0 0.0 7.0 0.06 0.19 0.19 87 1009.7